CAPE
11 5 24 40 6 0 3 34 39 43 47 43 32 39 47 52 44 55 7 1 0 5 3 1 0 0 1 0 0 0 1 3 4 3 3 4 4 4 0 0 2 3 2 4 13 7 0 0 0 0 0 0 0 0
20 9 1 3 34 31 15 30 13 21 17 27 36 29 30 60 57 9 2 3 1 1 5 3 4 3 0 0 0 0 0 2 3 6 6 2 4 3 0 1 0 0 0 0 0 0 0 0 0 0 0 0 0 0
26 19 14 7 1 10 45 47 37 34 28 38 32 10 23 65 39 1 7 1 0 2 6 2 2 0 0 0 0 0 5 7 8 11 8 13 4 0 1 0 0 0 0 13 0 0 0 0 0 0 0 0 0 0
41 28 22 21 16 10 5 3 0 20 26 26 20 12 12 3 7 0 0 3 0 4 9 15 6 2 2 2 0 0 0 8 12 18 17 21 1 1 0 0 0 0 0 0 0 0 0 0 0 0 0 0 0 0
22 27 26 19 15 14 10 8 2 3 4 20 12 14 8 8 2 0 0 0 0 0 11 15 11 11 11 18 11 7 8 8 11 11 13 6 0 0 0 0 0 0 0 0 0 0 0 0 0 0 0 0 0 0
13 12 18 17 16 18 17 21 3 1 5 8 7 9 12 2 0 0 0 0 5 0 0 7 8 10 12 18 15 10 11 13 16 16 28 23 0 24 8 0 0 0 0 0 0 0 0 0 0 0 0 0 0 0
1 1 0 9 13 14 18 17 22 19 29 27 28 23 17 12 0 6 1 11 2 0 12 8 12 7 14 11 7 5 22 18 19 41 28 0 0 1 0 0 0 0 0 0 0 0 0 0 0 0 0 0 0 0
0 0 0 0 0 3 10 21 24 12 23 23 6 13 15 12 7 5 0 0 0 3 0 17 19 17 3 9 6 14 26 26 49 2 0 0 0 0 0 0 0 0 0 0 0 0 0 0 0 1 2 0 0 0
0 0 0 0 0 0 0 0 0 0 0 3 8 8 29 10 16 2 0 0 49 0 18 7 11 15 3 12 16 8 1 17 0 1 0 0 0 0 0 0 0 0 0 0 0 0 0 0 0 17 1 0 0 0
0 0 0 0 0 0 0 0 0 0 0 0 43 66 84 0 0 0 2 30 114 41 34 16 2 9 34 40 35 2 30 1 0 0 0 0 0 0 0 0 0 0 0 0 13 2 1 0 9 11 0 0 0 0
0 0 0 0 0 0 0 0 0 0 0 2 35 0 0 0 0 0 7 77 6 3 9 9 3 13 18 38 39 3 61 6 7 1 0 1 0 0 0 0 0 0 0 0 0 0 0 24 65 3 0 0 0 0
0 0 0 0 0 0 0 0 0 0 0 0 0 0 0 0 0 0 0 0 1 0 18 47 78 88 69 47 3 29 4 8 9 8 8 1 26 0 0 0 1 0 0 0 0 0 3 30 4 0 0 0 0 0
0 0 0 0 0 0 0 0 0 0 0 0 0 0 0 0 0 0 0 0 5 13 23 37 52 43 31 8 35 5 0 6 24 11 4 103 4 0 0 0 0 0 1 2 8 10 6 0 0 0 0 0 0 0
0 0 0 0 0 0 0 0 0 0 0 0 0 0 0 0 1 14 3 7 7 34 39 21 34 40 8 34 7 2 10 10 9 6 2 51 5 6 12 5 5 4 13 9 14 10 8 27 0 0 0 0 0 0
0 0 0 0 0 0 0 0 0 0 0 0 0 0 0 18 8 5 5 17 55 40 26 27 15 22 15 0 12 7 1 5 2 3 67 106 21 4 1 2 11 30 0 17 5 0 0 0 0 0 0 0 0 0
0 0 0 0 0 0 0 0 0 0 0 1 3 11 21 17 80 104 124 119 60 49 30 15 10 4 1 8 2 1 3 3 41 139 171 110 67 42 10 36 31 21 0 0 0 0 0 1 0 0 0 0 0 0
0 13 0 0 0 0 0 0 0 0 0 5 13 44 23 42 68 82 72 106 78 106 87 12 0 0 22 7 2 18 6 54 187 202 207 88 84 101 52 0 0 0 0 0 0 0 0 0 2 0 0 0 5 3
8 0 0 0 0 0 0 1 0 2 5 25 18 65 75 54 55 65 66 40 56 45 30 19 17 8 5 2 17 91 183 253 255 256 210 111 86 7 0 0 0 0 0 0 0 0 0 0 3 6 1 1 0 10
18 3 0 0 0 0 0 0 10 8 25 18 14 24 34 43 64 70 46 35 39 17 28 16 4 7 14 63 78 131 251 200 199 142 0 0 0 0 0 0 0 0 0 0 0 1 4 0 0 0 0 0 3 8
0 0 0 0 0 3 1 1 3 7 17 20 24 26 21 23 28 81 24 21 13 3 7 0 0 34 86 155 183 161 199 194 120 85 49 60 0 0 0 0 1 1 3 6 12 1 3 4 0 0 0 0 0 9
3 0 0 1 3 10 5 6 10 18 15 19 28 23 20 22 23 24 24 15 58 13 2 0 4 146 157 132 82 24 45 14 14 0 16 109 10 10 4 6 2 2 1 2 2 4 0 5 2 0 2 10 22 26
12 0 4 1 4 1 4 7 13 8 11 12 10 22 37 28 32 35 16 38 13 12 33 33 50 41 25 22 7 11 25 14 7 0 0 0 4 0 1 7 9 16 12 12 9 12 5 0 0 0 0 8 3 10
0 5 11 3 2 5 6 5 12 10 5 13 20 19 17 19 29 19 20 11 14 42 63 57 47 4 15 0 0 0 0 0 2 11 7 3 8 17 9 7 4 8 6 4 0 1 1 0 0 9 4 6 20 26
0 5 0 0 6 16 4 7 6 13 17 14 23 5 22 37 8 5 7 6 30 45 21 16 7 0 0 0 3 1 0 0 2 20 13 6 3 1 1 1 0 0 0 0 0 0 3 25 13 26 30 26 22 24
0 0 2 2 7 9 13 11 5 10 8 0 9 9 27 14 9 5 3 3 15 76 59 0 9 13 11 15 22 31 0 1 2 3 8 0 0 0 1 0 0 1 0 12 18 19 24 24 27 29 24 25 17 10
0 2 3 9 15 13 13 18 12 10 13 11 10 17 16 17 6 2 1 15 45 44 1 3 8 40 40 39 39 40 3 0 0 0 7 0 0 1 7 10 8 6 0 0 4 6 9 9 11 6 11 11 2 6
4 19 0 1 4 4 15 36 12 24 22 8 40 15 15 3 4 2 33 42 65 123 16 1 18 53 40 29 0 0 0 0 0 0 1 0 0 0 0 0 0 0 0 0 0 0 4 7 8 6 8 13 15 14
2 6 0 23 21 11 11 10 0 6 8 12 24 9 8 4 7 25 59 80 141 82 40 30 7 4 4 1 2 4 2 0 0 0 0 0 0 0 0 0 0 0 0 0 1 1 8 16 21 20 17 11 3 4
22 3 20 16 31 17 18 12 8 5 7 11 32 15 1 1 106 55 0 5 13 60 15 2 4 6 7 5 8 9 7 4 1 0 0 2 5 4 5 4 3 4 4 8 4 12 19 9 4 6 8 13 13 13
8 16 10 11 7 7 33 51 98 237 54 80 61 12 10 20 2 0 1 3 5 2 0 4 7 11 4 6 8 15 17 10 7 6 10 11 10 5 4 4 6 6 7 10 13 10 6 11 8 6 7 11 15 12
0 24 43 16 7 42 199 88 75 84 51 41 53 170 125 39 2 2 2 2 4 20 17 7 9 17 15 9 7 5 4 5 0 0 1 5 2 4 3 0 4 4 7 10 10 9 8 9 13 9 9 7 3 3
37 11 21 16 33 6 19 81 74 35 53 17 35 79 5 11 27 5 5 3 9 14 14 17 10 8 4 4 3 3 0 5 6 0 0 2 1 0 0 0 2 2 3 2 5 7 6 5 12 6 4 1 4 1
43 64 47 22 12 10 12 56 23 37 34 36 14 4 5 5 3 5 5 6 9 9 9 12 10 11 8 4 6 5 0 0 0 0 0 0 0 0 0 0 0 0 0 1 1 2 3 0 1 0 2 0 0 0
CIN
-0 -0 -4 -1 -1 -0 -16 -3 -10 -11 -2 -5 -17 -16 -21 -25 -5 -8 -7 -0 -0 -0 -0 -0 -0 -0 -0 -0 -0 -0 -0 -0 -0 -0 -0 -0 -0 -0 -0 -0 -0 -0 -0 -0 -0 -0 -0 -0 -0 -0 -0 -0 -0 -0
-0 -0 -0 -1 -7 -8 -5 -0 -6 -12 -14 -22 -20 -27 -30 -24 -7 -20 -0 -0 -0 -0 -0 -0 -0 -0 -0 -0 -0 -0 -0 -0 -0 -0 -0 -0 -0 -0 -0 -0 -0 -0 -0 -0 -0 -0 -0 -0 -0 -0 -0 -0 -0 -0
-0 -0 -0 -0 -0 -8 -10 -13 -23 -29 -29 -28 -37 -46 -44 -34 -1 -1 -0 -0 -0 -0 -0 -0 -0 -0 -0 -0 -0 -0 -0 -0 -0 -0 -0 -0 -0 -0 -0 -0 -0 -0 -0 -0 -0 -0 -0 -0 -0 -0 -0 -0 -0 -0
-0 -0 -0 -0 -0 -0 -0 -0 -0 -2 -3 -4 -20 -25 -34 -15 -0 -0 -0 -0 -0 -0 -0 -0 -0 -0 -0 -2 -0 -0 -0 -0 -0 -0 -0 -0 -0 -0 -0 -0 -0 -0 -0 -0 -0 -0 -0 -0 -0 -0 -0 -0 -0 -0
-0 -0 -0 -0 -0 -0 -0 -0 -0 -0 -1 -1 -1 -0 -2 -0 -0 -0 -0 -0 -0 -0 -0 -0 -0 -0 -0 -0 -0 -0 -0 -0 -0 -0 -0 -0 -0 -0 -0 -0 -0 -0 -0 -0 -0 -0 -0 -0 -0 -0 -0 -0 -0 -0
-0 -0 -0 -0 -0 -0 -0 -0 -0 -0 -0 -0 -0 -0 -0 -0 -0 -0 -0 -0 -18 -0 -0 -0 -0 -0 -0 -0 -0 -0 -0 -0 -0 -0 -0 -0 -0 -0 -0 -0 -0 -0 -0 -0 -0 -0 -0 -0 -0 -0 -0 -0 -0 -0
-2 -2 -0 -2 -0 -0 -0 -0 -0 -0 -0 -0 -0 -0 -0 -1 -0 -0 -0 -0 -10 -0 -0 -0 -0 -0 -0 -0 -0 -0 -0 -0 -0 -1 -1 -0 -0 -16 -0 -0 -0 -0 -0 -0 -0 -0 -0 -0 -0 -0 -0 -0 -0 -0
-0 -0 -0 -0 -0 -9 -2 -10 -0 -0 -1 -0 -3 -0 -0 -0 -1 -0 -0 -0 -0 -0 -0 -0 -0 -0 -0 -0 -0 -0 -0 -5 -0 -3 -0 -0 -0 -0 -0 -0 -0 -0 -0 -0 -0 -0 -0 -0 -2 -0 -0 -0 -0 -0
-0 -0 -0 -0 -0 -0 -0 -0 -0 -0 -0 -11 -22 -28 -12 -0 -0 -4 -0 -0 -15 -0 -0 -0 -0 -0 -0 -0 -0 -3 -0 -0 -0 -0 -0 -0 -0 -0 -0 -0 -0 -0 -0 -0 -0 -0 -0 -0 -0 -0 -1 -0 -0 -0
-0 -0 -0 -0 -0 -0 -0 -0 -0 -0 -0 -38 -22 -37 -12 -0 -0 -0 -0 -34 -0 -0 -0 -0 -0 -0 -0 -0 -0 -7 -0 -0 -0 -0 -0 -0 -0 -0 -0 -0 -0 -0 -0 -0 -6 -0 -1 -1 -0 -1 -0 -0 -0 -0
-0 -0 -0 -0 -0 -0 -0 -0 -0 -0 -0 -15 -4 -0 -0 -0 -0 -0 -29 -0 -11 -0 -0 -0 -0 -0 -0 -0 -0 -0 -0 -0 -0 -0 -0 -0 -0 -0 -0 -0 -0 -0 -0 -0 -0 -0 -0 -3 -12 -5 -0 -0 -0 -0
-0 -0 -0 -0 -0 -0 -0 -0 -0 -0 -0 -0 -0 -0 -0 -0 -0 -0 -0 -0 -0 -0 -0 -0 -0 -0 -1 -1 -0 -0 -0 -0 -0 -0 -0 -0 -0 -0 -0 -0 -2 -0 -0 -0 -0 -0 -0 -1 -3 -0 -0 -0 -0 -0
-0 -0 -0 -0 -0 -0 -0 -0 -0 -0 -0 -0 -0 -0 -0 -0 -0 -0 -0 -0 -0 -0 -0 -0 -0 -0 -0 -0 -0 -0 -0 -0 -0 -0 -0 -0 -0 -0 -0 -0 -0 -0 -0 -0 -0 -0 -1 -0 -0 -0 -0 -0 -0 -0
-0 -0 -0 -0 -0 -0 -0 -0 -0 -0 -0 -0 -0 -0 -0 -0 -0 -0 -0 -0 -0 -0 -0 -0 -0 -0 -0 -0 -0 -0 -0 -0 -0 -0 -0 -0 -0 -0 -0 -0 -0 -0 -1 -8 -1 -1 -2 -10 -0 -0 -0 -0 -0 -0
-0 -0 -0 -0 -0 -0 -0 -0 -0 -0 -0 -0 -0 -0 -0 -0 -0 -0 -0 -0 -0 -0 -0 -0 -0 -0 -0 -0 -0 -0 -1 -0 -0 -0 -1 -0 -1 -0 -5 -0 -0 -2 -0 -23 -35 -0 -0 -0 -0 -0 -0 -0 -0 -0
-0 -0 -0 -0 -0 -0 -0 -0 -0 -0 -0 -0 -0 -0 -0 -0 -0 -0 -0 -0 -0 -0 -0 -0 -0 -0 -0 -0 -0 -0 -0 -0 -0 -1 -1 -0 -0 -0 -0 -1 -0 -8 -0 -0 -0 -0 -0 -0 -0 -0 -0 -0 -0 -0
-0 -0 -0 -0 -0 -0 -0 -0 -0 -0 -0 -0 -1 -4 -0 -0 -0 -0 -0 -0 -0 -0 -0 -0 -0 -0 -0 -0 -0 -0 -0 -1 -0 -0 -0 -0 -1 -3 -29 -0 -0 -0 -0 -0 -0 -0 -0 -0 -0 -0 -0 -3 -3 -2
-1 -0 -0 -0 -0 -0 -0 -0 -0 -0 -0 -0 -0 -0 -0 -0 -0 -0 -0 -2 -1 -0 -0 -1 -0 -0 -1 -0 -0 -0 -3 -0 -0 -0 -0 -2 -4 -7 -0 -0 -0 -0 -0 -0 -0 -0 -0 -0 -0 -0 -0 -0 -0 -2
-0 -0 -0 -0 -0 -0 -0 -0 -0 -0 -0 -0 -0 -0 -0 -0 -0 -0 -0 -0 -0 -0 -0 -1 -1 -1 -0 -1 -3 -0 -0 -0 -0 -1 -0 -0 -0 -0 -0 -0 -0 -0 -0 -0 -0 -0 -0 -0 -0 -0 -3 -2 -0 -0
-0 -0 -0 -0 -0 -0 -0 -0 -0 -0 -0 -0 -0 -0 -0 -0 -0 -0 -0 -0 -0 -1 -4 -6 -0 -1 -2 -4 -2 -0 -1 -1 -0 -0 -1 -0 -0 -0 -0 -0 -0 -0 -1 -1 -0 -0 -0 -0 -0 -0 -0 -0 -0 -0
-7 -0 -0 -0 -0 -0 -0 -0 -0 -0 -0 -0 -0 -0 -0 -0 -0 -0 -0 -0 -0 -0 -0 -0 -7 -1 -6 -1 -0 -0 -1 -0 -0 -0 -0 -1 -5 -0 -0 -1 -4 -4 -2 -1 -0 -1 -0 -0 -0 -0 -0 -0 -0 -0
-0 -0 -0 -0 -0 -0 -0 -0 -0 -0 -0 -0 -0 -0 -0 -0 -0 -0 -0 -0 -0 -0 -0 -0 -0 -0 -23 -13 -11 -11 -8 -5 -5 -0 -0 -0 -0 -0 -2 -0 -0 -0 -0 -0 -0 -0 -0 -0 -0 -0 -0 -0 -0 -0
-1 -2 -0 -0 -0 -0 -0 -0 -0 -0 -0 -0 -0 -0 -0 -0 -0 -0 -0 -0 -0 -0 -0 -0 -1 -12 -9 -0 -8 -0 -0 -0 -0 -0 -5 -0 -0 -0 -0 -0 -0 -0 -0 -0 -0 -0 -0 -0 -0 -0 -0 -0 -0 -0
-0 -2 -0 -0 -0 -0 -0 -0 -0 -0 -0 -0 -0 -0 -0 -0 -0 -0 -0 -0 -0 -1 -0 -11 -3 -0 -0 -0 -0 -0 -0 -0 -0 -0 -0 -0 -0 -1 -0 -0 -0 -0 -0 -0 -0 -0 -0 -0 -2 -1 -0 -0 -0 -0
-0 -0 -0 -0 -0 -0 -0 -0 -0 -0 -0 -0 -0 -1 -0 -0 -0 -0 -0 -0 -0 -0 -3 -0 -0 -0 -0 -0 -0 -0 -0 -0 -0 -0 -0 -0 -0 -0 -0 -0 -0 -0 -0 -0 -0 -0 -0 -0 -0 -0 -0 -0 -0 -0
-0 -0 -0 -0 -0 -0 -0 -0 -0 -0 -0 -0 -0 -0 -0 -0 -0 -0 -0 -0 -0 -12 -0 -0 -0 -0 -0 -0 -0 -0 -2 -0 -0 -0 -0 -0 -0 -0 -0 -0 -0 -0 -0 -0 -0 -0 -0 -0 -0 -0 -0 -0 -1 -0
-0 -0 -0 -0 -0 -0 -0 -0 -0 -0 -0 -0 -0 -0 -0 -0 -0 -0 -1 -6 -0 -0 -25 -0 -5 -0 -0 -6 -0 -0 -0 -0 -0 -0 -0 -0 -0 -0 -0 -0 -0 -0 -0 -0 -0 -0 -0 -0 -0 -0 -0 -0 -0 -0
-0 -0 -0 -0 -0 -0 -0 -0 -0 -0 -0 -0 -0 -0 -0 -0 -0 -3 -6 -15 -2 -11 -18 -11 -0 -37 -19 -0 -0 -0 -0 -0 -0 -0 -0 -0 -0 -0 -0 -0 -0 -0 -0 -0 -0 -0 -0 -0 -0 -0 -0 -0 -0 -0
-0 -0 -0 -0 -0 -0 -0 -0 -0 -0 -0 -1 -0 -0 -0 -0 -6 -16 -0 -48 -47 -13 -32 -0 -0 -0 -0 -0 -0 -0 -0 -0 -0 -0 -0 -0 -0 -0 -0 -0 -0 -0 -0 -0 -1 -0 -0 -0 -0 -0 -0 -0 -0 -0
-0 -0 -0 -0 -0 -0 -0 -1 -1 -4 -4 -3 -1 -0 -0 -18 -0 -0 -0 -0 -0 -0 -0 -0 -0 -0 -0 -0 -0 -0 -0 -0 -0 -0 -0 -0 -0 -0 -0 -0 -0 -0 -0 -0 -0 -0 -1 -0 -0 -0 -0 -0 -0 -0
-0 -0 -0 -0 -0 -0 -1 -12 -16 -20 -36 -19 -31 -0 -0 -14 -0 -0 -0 -0 -0 -0 -0 -0 -0 -0 -0 -0 -0 -0 -0 -0 -0 -0 -0 -0 -0 -0 -0 -0 -0 -0 -0 -0 -0 -0 -0 -0 -0 -0 -0 -0 -0 -0
-0 -0 -0 -0 -0 -0 -9 -0 -0 -0 -0 -5 -0 -0 -0 -3 -0 -0 -0 -0 -0 -0 -0 -0 -0 -0 -0 -0 -0 -0 -0 -0 -0 -0 -0 -0 -0 -0 -0 -0 -0 -0 -0 -0 -0 -0 -0 -0 -0 -0 -0 -0 -0 -0
-0 -0 -0 -0 -0 -0 -0 -0 -0 -0 -0 -0 -1 -0 -0 -0 -0 -0 -0 -0 -0 -0 -0 -0 -0 -0 -0 -0 -0 -0 -0 -0 -0 -0 -0 -0 -0 -0 -0 -0 -0 -0 -0 -0 -0 -0 -0 -0 -0 -0 -0 -0 -0 -0
Wind_Speed
28 25 18 14 14 16 15 15 19 20 21 22 22 23 26 29 31 13 4 2 1 3 3 5 3 7 8 7 8 8 6 1 3 5 5 4 4 8 6 12 11 10 9 6 5 6 10 15 15 9 8 10 11 10
29 28 26 22 12 15 12 6 15 16 18 19 20 22 22 22 27 12 4 6 4 6 3 1 4 8 4 4 10 11 4 7 6 4 3 3 4 5 8 8 14 7 6 7 9 5 2 15 10 9 9 11 7 7
26 28 28 27 23 12 12 9 8 10 17 21 23 23 23 25 31 12 7 7 6 4 3 4 4 7 5 6 6 8 2 5 4 3 4 2 3 4 6 5 12 8 15 4 6 8 10 12 13 13 10 6 8 6
25 25 26 26 25 25 23 21 13 10 12 17 19 22 22 24 19 14 9 5 6 5 4 3 2 3 3 10 8 4 13 6 8 4 3 3 3 2 5 4 8 6 9 10 7 7 10 9 12 11 11 7 6 6
24 25 24 25 24 25 24 24 24 20 13 20 22 22 20 21 20 10 7 2 3 3 5 5 8 5 9 10 13 12 14 11 4 4 2 2 3 2 1 1 7 9 9 8 5 8 6 11 14 13 10 12 8 7
21 22 23 22 23 24 23 21 23 22 21 20 21 26 26 25 17 5 5 5 1 6 6 5 3 4 12 11 16 14 10 6 3 4 2 2 3 0 3 4 7 10 10 9 6 9 11 7 8 9 9 8 9 7
20 21 21 21 20 21 22 23 23 21 23 26 24 22 17 16 6 3 4 9 2 3 6 6 4 3 12 11 6 8 9 5 2 1 2 5 4 3 2 4 6 7 9 11 5 3 8 10 10 11 9 8 5 6
19 20 19 18 17 17 17 18 19 19 19 21 17 14 22 21 8 7 4 5 3 5 5 6 5 4 8 7 6 4 4 2 1 1 1 5 3 2 3 7 6 6 6 3 8 7 7 6 9 11 11 9 10 10
17 18 19 19 18 15 12 12 10 9 7 6 13 18 7 5 3 2 6 12 6 4 5 4 7 7 5 5 6 2 2 3 1 2 3 5 4 5 6 7 6 5 8 7 8 10 10 8 9 11 12 10 10 9
16 17 18 19 20 18 13 6 4 1 4 6 5 4 3 1 1 4 4 2 3 4 4 8 8 9 9 6 3 3 2 3 3 4 4 1 4 7 6 6 5 5 5 10 5 10 11 12 11 10 10 9 8 8
15 16 17 18 19 20 19 16 6 8 8 2 3 4 2 5 2 3 3 2 3 3 6 8 11 13 8 7 6 3 3 2 3 4 4 4 3 8 11 9 7 8 9 9 9 9 11 7 5 7 9 9 8 9
13 15 16 17 18 19 20 21 16 6 4 3 5 3 4 4 4 5 3 1 4 4 8 12 11 7 6 5 4 2 3 1 2 5 3 3 2 6 10 11 12 10 11 11 12 10 9 8 9 5 4 6 7 7
10 12 14 16 17 17 16 14 12 8 7 1 5 5 4 5 4 3 2 3 5 5 6 7 7 4 3 4 3 3 3 4 9 4 4 1 6 8 10 8 11 11 11 10 10 9 8 4 6 5 7 7 6 6
7 8 10 15 16 17 17 16 14 9 3 3 3 4 4 3 3 5 5 8 5 9 12 9 5 3 2 3 3 3 2 4 4 4 4 4 7 9 7 7 10 13 11 7 8 8 7 6 5 4 5 5 4 3
4 7 8 13 15 17 17 18 17 4 3 4 4 4 2 5 6 4 7 9 12 11 11 7 5 4 4 3 1 5 2 4 4 3 3 3 7 12 10 8 10 9 7 6 5 5 5 4 3 4 3 3 5 3
5 10 5 10 14 15 16 12 4 4 3 4 3 5 7 6 3 3 8 9 10 9 9 5 5 4 2 4 3 4 5 4 4 4 4 6 10 11 10 7 10 8 8 6 5 5 4 5 6 6 5 5 5 5
6 2 6 10 15 17 13 4 3 4 3 3 1 5 5 6 5 5 6 6 8 7 3 4 3 3 5 3 5 4 3 3 5 6 3 8 8 8 11 10 7 5 6 5 4 2 1 0 0 2 5 5 3 4
1 6 5 9 11 3 3 4 2 3 4 4 4 4 6 5 6 4 4 1 3 4 1 3 3 3 3 5 4 4 5 4 5 6 6 8 9 8 6 8 6 4 2 5 3 2 4 4 4 1 3 4 5 4
8 7 4 8 9 4 3 4 4 4 5 4 3 3 4 5 5 5 4 3 3 2 2 1 2 2 3 2 4 4 5 5 5 7 6 8 8 7 2 5 5 2 3 3 3 3 2 0 3 3 2 3 4 5
9 7 5 8 8 2 4 3 3 2 4 3 3 4 4 3 4 3 2 2 3 2 2 1 2 2 4 6 5 4 3 4 6 5 4 4 6 5 2 1 1 2 2 3 3 1 3 3 4 2 1 2 4 5
4 1 2 5 3 6 3 1 4 3 3 2 4 5 3 3 3 3 3 3 2 2 3 3 3 1 4 3 3 4 3 3 2 1 2 2 5 4 4 3 2 2 2 3 3 3 4 3 2 3 2 3 3 5
3 3 2 2 3 3 3 4 4 2 3 3 3 3 4 3 2 4 4 5 4 6 5 4 4 2 3 4 3 2 3 2 3 4 4 5 5 4 3 4 5 4 3 2 4 3 3 3 3 1 2 3 4 5
7 3 2 2 2 1 3 1 3 5 4 5 4 3 2 1 3 3 2 4 5 4 4 4 5 3 3 2 4 4 3 4 4 3 4 3 3 3 2 2 2 2 3 3 3 3 2 2 3 3 4 4 6 6
1 2 3 2 2 4 3 2 2 2 2 3 4 2 2 3 4 2 5 6 3 6 4 3 4 3 2 5 5 5 5 5 5 4 4 3 2 2 2 2 2 2 3 2 1 2 3 4 4 5 5 6 7 8
4 2 3 4 3 4 5 5 4 4 4 4 4 2 3 3 3 3 4 3 4 4 6 6 4 6 5 5 5 4 7 5 4 4 4 4 3 2 2 3 3 3 2 3 4 4 3 3 5 7 7 8 10 12
5 5 8 9 6 5 6 5 8 7 4 4 3 2 1 2 2 4 2 1 2 4 4 6 5 5 4 3 5 5 6 4 3 2 3 3 2 2 3 4 3 2 3 1 2 4 6 6 7 10 10 11 12 12
5 5 4 3 4 4 3 3 4 4 4 4 4 4 4 4 5 3 3 2 3 4 5 6 5 4 3 5 7 6 6 6 4 5 5 4 3 3 3 2 3 5 4 4 4 5 7 8 9 10 11 11 11 12
4 6 7 8 5 5 3 4 3 4 4 4 6 5 4 4 1 3 3 3 3 5 6 4 4 5 5 7 7 7 7 6 7 6 5 4 4 4 4 4 4 4 3 2 4 4 6 8 9 11 12 12 12 11
5 7 7 7 6 4 5 5 5 4 3 4 5 4 3 2 3 3 3 3 2 4 5 5 4 4 6 6 6 6 6 5 6 6 4 2 5 4 4 3 2 2 3 5 6 7 9 9 10 10 12 11 11 11
6 8 5 9 5 9 6 5 5 3 3 3 3 3 4 4 3 3 3 3 2 1 3 4 6 5 5 6 7 7 4 3 3 2 1 1 5 5 3 2 3 4 5 6 7 9 10 9 10 9 10 10 9 10
9 7 6 6 6 5 3 4 2 2 1 2 2 2 3 3 3 6 6 4 3 2 3 4 4 4 6 8 7 7 5 5 7 7 6 5 4 4 5 4 4 5 6 7 7 8 9 9 9 11 12 13 13 12
7 10 7 8 6 4 4 5 5 4 4 3 3 2 3 3 4 4 5 6 2 2 5 7 8 9 9 8 8 8 12 8 6 5 6 5 6 5 5 4 4 5 7 7 7 8 10 11 10 11 11 14 13 13
5 7 7 4 4 7 5 5 6 4 4 3 2 3 3 3 5 3 2 6 6 8 8 9 8 8 9 9 10 9 10 9 11 10 9 8 7 5 4 5 5 6 7 7 8 9 10 12 11 13 13 12 12 12
Wind_Direction
38 34 33 64 85 69 78 135 144 146 153 158 164 169 171 174 180 164 150 146 70 85 20 356 61 140 141 149 141 151 105 208 137 173 172 167 170 185 174 171 173 167 159 175 184 197 231 150 136 166 112 97 96 104
40 43 43 40 53 110 100 106 125 135 142 148 153 157 161 169 166 144 112 102 99 75 91 10 66 40 20 90 122 171 82 138 156 142 155 135 180 177 169 179 181 186 178 164 189 195 98 158 141 128 139 132 137 148
41 44 47 47 47 62 65 87 110 148 152 154 159 158 160 162 179 150 128 132 81 104 78 41 30 342 50 100 121 127 166 133 171 149 119 134 157 214 176 205 169 198 196 205 191 204 179 158 145 135 135 147 146 140
38 47 48 51 56 65 66 66 79 135 138 153 157 157 156 153 153 139 136 157 102 108 91 82 221 57 91 93 87 88 121 144 114 106 97 137 132 161 207 172 184 168 181 174 198 178 147 175 136 143 147 149 136 138
38 41 51 53 55 61 62 65 69 71 134 161 156 154 148 134 118 99 91 67 115 124 127 109 88 63 94 123 127 133 131 128 110 104 107 121 164 186 235 282 189 177 188 175 202 177 170 180 164 178 168 154 178 179
35 43 44 54 59 61 66 67 76 63 66 100 124 125 122 120 127 122 81 339 237 128 117 95 25 123 136 129 130 130 125 117 118 120 169 83 41 13 167 203 206 190 161 192 218 183 179 178 183 132 145 186 153 174
25 28 34 40 50 67 75 73 82 87 90 84 86 93 77 51 45 58 141 144 214 64 93 106 96 358 144 138 133 147 167 145 123 161 163 138 143 111 175 205 161 187 186 187 206 203 160 163 153 149 172 150 117 177
20 21 24 33 36 43 65 77 93 112 123 125 136 137 114 105 95 69 19 42 345 101 88 106 104 127 177 131 113 121 96 90 308 140 121 112 133 172 218 223 225 179 183 230 200 195 154 165 159 190 158 171 186 199
23 25 26 24 33 39 44 60 75 89 120 133 145 154 133 138 99 178 313 296 191 139 118 134 140 127 193 130 114 91 121 95 130 163 179 149 148 203 206 211 185 219 163 200 217 187 148 192 199 180 170 189 199 217
24 24 22 20 19 20 29 43 63 158 248 254 190 100 78 92 143 203 213 79 18 360 78 112 102 121 133 149 101 116 144 134 158 201 104 148 238 226 190 190 181 166 180 179 176 172 173 186 205 182 192 203 205 217
33 26 20 20 19 15 15 14 342 313 280 72 62 71 167 140 210 51 60 73 111 96 112 121 127 127 146 119 128 121 137 143 183 145 153 201 235 214 214 185 180 168 183 178 180 185 200 181 173 185 217 209 200 219
35 33 28 21 18 17 13 11 6 40 19 5 90 141 24 25 38 65 42 350 125 93 121 124 118 87 53 79 93 99 94 208 153 132 150 235 208 160 177 199 178 177 175 178 175 190 197 168 178 191 213 242 246 233
35 33 27 20 15 13 10 8 5 339 311 94 40 42 5 355 45 58 79 84 109 97 118 118 104 111 93 70 76 97 146 181 133 166 209 237 154 174 166 177 176 170 171 177 165 176 157 166 160 176 226 236 222 237
21 25 30 23 12 5 356 349 342 335 329 62 67 53 13 42 32 359 111 101 107 122 117 109 78 83 122 91 135 127 150 134 184 207 212 172 173 150 143 158 175 169 163 155 170 173 181 169 189 195 197 205 203 232
337 329 333 17 1 358 350 336 321 360 53 50 42 63 73 75 67 67 115 123 119 112 118 111 89 75 76 99 167 95 118 194 218 224 108 143 165 134 133 148 157 144 123 119 86 62 60 42 7 330 338 287 262 235
294 300 28 357 346 340 333 319 12 48 38 44 35 107 94 112 103 89 111 110 121 132 163 127 113 124 124 135 137 177 181 215 174 114 152 153 140 136 141 126 82 80 91 91 89 65 26 359 333 325 321 314 297 287
284 49 25 349 330 311 299 345 42 53 63 71 88 123 130 108 126 125 127 132 144 162 128 106 108 151 134 180 190 189 209 90 126 120 131 122 125 116 98 98 98 88 87 76 81 68 330 249 65 294 283 285 261 262
201 97 34 348 330 309 25 8 63 82 71 91 83 46 103 112 115 107 105 44 119 147 180 123 134 159 169 189 185 149 97 106 112 114 103 95 88 87 94 116 122 129 145 102 112 217 224 206 233 270 12 9 334 347
52 83 40 345 338 304 55 39 341 83 59 80 104 86 98 98 76 97 100 96 71 84 90 73 89 235 185 66 79 111 136 134 127 105 85 68 62 87 87 71 94 159 106 145 227 253 311 96 294 302 337 355 327 324
92 73 2 330 327 45 53 47 290 115 129 110 129 151 134 126 107 63 113 121 104 69 59 317 245 34 32 46 42 68 125 109 128 123 135 157 136 126 95 165 222 77 145 220 248 36 316 296 112 118 69 341 310 305
180 48 314 318 32 18 86 71 45 47 120 101 139 148 140 135 162 176 202 194 212 217 214 223 248 288 58 65 55 21 68 145 152 251 269 114 130 162 163 180 181 176 240 267 260 250 203 253 301 309 313 329 326 310
93 44 71 343 67 32 63 4 81 129 108 141 177 196 130 167 203 210 211 210 227 235 238 268 285 288 166 179 166 164 69 43 85 116 118 136 159 159 189 193 200 214 235 270 286 296 291 302 351 30 318 298 311 303
166 216 110 122 102 71 89 264 173 173 139 182 173 153 158 202 166 166 209 237 233 221 234 234 228 195 135 126 161 131 142 201 219 185 144 201 213 140 156 162 205 239 256 273 304 322 296 62 214 242 277 283 281 279
186 83 129 144 232 108 142 174 229 174 95 171 159 186 166 144 139 223 248 253 239 178 186 136 146 130 159 172 201 183 190 202 215 174 170 192 178 165 224 239 225 259 275 293 293 323 308 295 295 286 288 286 279 281
143 161 175 168 199 147 165 164 185 157 164 208 167 184 136 144 192 232 240 236 215 196 139 140 196 185 202 180 187 160 156 187 213 221 143 188 172 157 204 226 253 248 222 197 231 251 276 304 290 286 292 296 293 294
180 159 189 182 170 188 168 168 185 188 157 169 169 125 131 171 222 241 243 147 92 124 144 156 192 195 211 175 174 172 163 170 183 208 127 170 159 218 253 261 266 232 51 351 285 295 304 310 303 300 296 298 299 304
184 155 192 220 181 191 155 181 169 151 164 172 162 151 169 213 222 228 102 75 109 105 144 174 201 201 197 123 87 64 71 66 61 85 93 84 72 48 37 356 357 45 47 33 357 327 316 315 312 307 303 300 299 301
207 156 162 170 166 184 153 156 153 175 188 175 148 179 196 213 232 93 76 104 100 128 132 121 45 39 63 100 105 103 90 93 86 85 85 83 89 96 86 79 77 69 22 341 323 312 292 291 297 300 305 307 307 302
174 162 144 176 170 176 192 188 194 208 184 171 181 180 197 248 49 78 75 74 74 121 130 132 102 92 98 102 104 113 130 141 142 149 186 229 174 169 119 88 47 8 340 310 309 310 314 322 315 309 306 305 304 302
154 161 161 169 187 200 190 190 199 175 188 191 220 238 228 106 72 35 86 81 87 133 158 154 145 166 163 141 124 118 94 90 39 8 208 112 85 98 83 42 14 358 339 325 320 315 313 316 317 310 305 307 310 315
146 176 167 171 205 201 180 136 89 116 87 184 21 245 259 106 101 41 43 14 355 53 120 126 136 141 145 135 138 134 125 86 77 55 66 78 75 65 54 22 344 340 323 316 323 322 318 315 312 311 312 319 324 324
151 181 181 190 176 134 129 168 165 189 176 196 199 152 155 196 190 79 9 333 248 145 113 112 103 86 81 81 75 66 84 105 112 100 80 67 65 47 19 349 332 334 339 335 318 316 318 318 317 327 332 328 325 331
157 170 194 200 142 159 158 176 189 196 200 218 137 28 63 30 78 98 69 8 27 83 83 84 86 91 90 89 90 82 75 79 83 78 77 72 62 31 347 0 358 353 338 330 327 322 329 341 337 336 329 339 341 336